SCP
0 0 0 0 0 0 0 0 0 0 0 0 0 1 0 0 0 0 0 0 0 0 0 0 0 0 0 0 0 0 0 0 0 0 0 0 0 0 0 0 0 0 0
0 0 0 0 0 0 0 0 0 0 0 0 0 0 0 0 0 0 0 0 0 0 0 0 0 0 0 0 0 0 0 0 0 0 0 0 0 0 0 0 0 0 0
0 0 0 0 0 0 0 0 0 0 0 0 0 0 0 0 0 0 0 0 0 0 0 0 0 0 0 0 0 0 0 0 0 0 0 0 0 0 0 0 0 0 0
0 0 0 0 0 0 0 0 0 0 0 0 0 0 0 0 0 0 0 0 0 0 0 0 0 0 0 0 0 0 0 0 0 0 0 0 0 0 0 0 0 0 0
0 0 0 0 0 0 0 0 0 0 0 0 0 0 0 0 0 0 0 0 0 0 0 0 0 0 0 0 0 0 0 0 0 0 0 0 0 0 0 0 0 0 0
0 0 0 0 0 0 0 0 0 0 0 0 0 0 0 0 0 0 0 0 0 0 0 0 0 0 0 0 0 0 0 0 0 0 0 0 0 0 0 0 0 0 0
0 0 0 0 0 0 0 0 0 0 0 0 0 0 0 0 0 0 0 0 0 0 0 0 0 0 0 0 0 0 0 0 0 0 0 0 0 0 0 0 0 0 0
0 0 0 0 0 0 0 0 0 0 0 0 0 0 0 0 0 0 0 0 0 0 0 0 0 0 0 0 0 0 0 0 0 0 0 0 0 0 0 0 0 0 0
0 0 0 0 0 0 0 0 0 0 0 0 0 0 0 0 0 0 0 0 0 0 0 0 0 0 0 0 0 0 0 0 0 0 0 0 0 0 0 0 0 0 0
0 0 0 0 0 0 0 0 0 0 0 0 0 0 0 0 0 0 0 0 0 0 0 0 0 0 0 0 0 0 0 0 0 0 0 0 0 0 0 0 0 0 0
0 0 0 0 0 0 0 0 0 0 0 0 0 0 0 0 0 0 0 0 0 0 0 0 0 0 0 0 0 0 0 0 0 0 0 0 0 0 0 0 0 0 0
0 0 0 0 0 0 0 0 0 0 0 0 0 0 0 0 0 0 0 0 0 0 0 0 0 0 0 0 0 0 0 0 0 0 0 0 0 0 0 0 0 0 0
0 0 0 0 0 0 0 0 0 0 0 0 0 0 0 0 0 0 0 0 0 0 0 0 0 0 0 0 0 0 0 0 0 0 0 0 0 0 0 0 0 0 0
0 0 0 0 0 0 0 0 0 0 0 0 0 0 0 0 0 0 0 0 0 0 0 0 0 0 0 0 0 0 0 0 0 0 0 0 0 0 0 0 0 0 0
0 0 0 0 0 0 0 0 0 0 0 0 0 0 0 0 0 0 0 0 0 0 0 0 0 0 0 0 0 0 0 0 0 0 0 0 0 0 0 0 0 0 0
0 0 0 0 0 0 0 0 0 0 0 0 0 0 0 0 0 0 0 0 0 0 0 0 0 0 0 0 0 0 0 0 0 0 0 0 0 0 0 0 0 0 0
0 0 0 0 0 0 0 0 0 0 0 0 0 0 0 0 0 0 0 0 0 0 0 0 0 0 0 0 0 0 0 0 0 0 0 0 0 0 0 0 0 0 0
0 0 0 0 0 0 0 0 0 0 0 0 0 0 0 0 0 0 0 0 0 0 0 0 0 0 0 0 0 0 0 0 0 0 0 0 0 0 0 0 0 0 0
0 0 0 0 0 0 0 0 0 0 0 0 0 0 0 0 0 0 0 0 0 0 0 0 0 0 0 0 0 0 0 0 0 0 0 0 0 0 0 0 0 0 0
0 0 0 0 0 0 0 0 0 0 0 0 0 0 0 0 0 0 0 0 0 0 0 0 0 0 0 0 0 0 0 0 0 0 0 0 0 0 0 0 0 0 0
0 0 0 0 0 0 0 0 0 0 0 0 0 0 0 0 0 0 0 0 0 0 0 0 0 0 0 0 0 0 0 0 0 0 0 0 0 0 0 0 0 0 0
0 0 0 0 0 0 0 0 0 0 0 0 0 0 0 0 0 0 0 0 0 0 0 0 0 0 0 0 0 0 0 0 0 0 0 0 0 0 0 0 0 0 0
0 0 0 0 0 0 0 0 0 0 0 0 0 0 0 0 0 0 0 0 0 0 0 0 0 0 0 0 0 0 0 0 0 0 0 0 0 0 0 0 0 0 0
0 0 0 0 0 0 0 0 0 0 0 0 0 0 0 0 0 0 0 0 0 0 0 0 0 0 0 0 0 0 0 0 0 0 0 0 0 0 0 0 0 0 0
0 0 0 0 0 0 0 0 0 0 0 0 0 0 0 0 0 0 0 0 0 0 0 0 0 0 0 0 0 0 0 0 0 0 0 0 0 0 0 0 0 0 0
0 0 0 0 0 0 0 0 0 0 0 0 0 0 0 0 0 0 0 0 0 0 0 0 0 0 0 0 0 0 0 0 0 0 0 0 0 0 0 0 0 0 0
Wind_Speed
8 8 8 7 7 6 5 5 5 5 4 3 3 3 3 3 3 3 4 4 4 4 3 4 4 3 3 2 2 2 2 2 3 2 1 1 1 2 2 1 1 2 2
8 8 8 8 7 7 6 6 6 5 4 4 3 3 3 3 4 4 4 4 4 5 4 3 3 3 3 3 2 3 2 3 3 3 2 2 2 2 2 1 1 1 2
8 8 8 8 7 7 7 7 6 5 5 4 3 3 4 4 5 5 5 5 5 5 4 4 4 3 4 3 3 3 2 2 3 3 2 2 1 1 1 1 1 1 1
9 8 8 8 7 7 8 7 6 5 5 4 4 4 4 4 4 4 4 4 4 4 4 4 4 5 5 4 3 4 3 3 3 3 2 2 2 1 2 1 1 1 1
9 9 9 8 7 7 7 7 6 5 5 5 4 4 4 4 4 4 4 4 4 4 3 3 4 5 5 4 3 4 4 3 3 3 3 2 2 2 2 2 2 1 1
8 9 9 8 8 7 7 7 6 5 5 5 4 4 4 3 5 5 3 3 3 4 4 4 4 4 5 5 5 6 6 5 5 4 3 4 4 3 2 2 2 2 2
8 8 8 8 8 8 7 7 7 6 5 5 4 4 5 5 6 5 4 2 2 3 3 3 3 3 4 3 4 5 5 7 7 5 5 5 4 4 4 3 3 3 3
9 9 8 8 8 8 7 7 7 6 5 5 5 4 4 5 6 5 4 2 2 3 3 4 4 3 4 4 4 3 3 4 5 5 5 5 5 5 5 4 3 2 1
10 10 9 8 8 8 7 7 6 6 5 5 5 4 4 5 6 5 4 2 2 3 3 3 3 4 5 5 4 3 3 3 3 4 4 4 5 5 5 3 3 2 2
11 11 9 8 8 8 7 7 6 5 6 5 5 4 4 5 5 5 5 2 2 2 2 2 4 4 5 5 4 4 4 3 2 2 2 2 2 4 5 5 4 4 2
11 10 9 8 8 7 6 6 6 5 5 5 5 5 4 5 5 5 5 2 2 2 2 2 2 4 4 4 3 3 4 3 2 2 2 2 1 2 2 2 3 4 3
10 10 9 8 7 7 6 6 5 5 5 5 5 5 4 4 5 5 5 5 3 2 2 2 2 3 3 2 2 2 2 1 2 2 2 2 2 2 1 1 2 1 1
10 10 9 9 7 7 6 6 5 4 3 4 4 4 4 3 3 5 6 6 5 2 2 3 2 2 1 1 1 1 1 1 2 2 2 2 1 2 2 2 2 2 2
10 10 9 8 7 6 5 5 4 4 4 4 4 4 4 4 3 3 2 3 3 2 1 1 1 1 1 1 0 1 1 1 2 2 2 1 1 2 2 1 1 1 1
10 9 8 7 7 6 5 4 5 4 5 5 4 4 4 4 5 7 3 3 2 1 0 0 0 0 0 0 0 0 1 1 1 1 1 1 1 1 1 1 1 1 1
9 8 6 6 5 5 5 5 7 7 10 10 9 7 6 7 8 7 6 5 4 1 0 1 1 1 1 1 1 1 1 1 1 1 1 2 2 2 1 1 1 2 2
9 9 6 6 5 5 5 5 6 7 9 9 9 9 8 8 7 6 5 3 2 1 0 0 1 1 1 1 1 1 1 1 1 1 2 2 2 2 2 2 2 2 1
9 9 7 5 5 5 5 5 4 5 6 5 7 8 8 8 7 6 4 2 1 1 1 0 1 1 1 1 1 1 1 1 1 1 1 1 2 2 2 2 2 2 2
8 6 6 5 4 5 5 4 4 5 4 5 5 6 7 7 6 5 3 1 1 1 1 1 1 1 1 1 1 1 1 1 1 1 1 1 1 2 2 2 2 3 2
7 11 9 5 5 4 4 4 4 4 4 4 5 5 4 4 3 3 3 2 1 1 1 1 1 1 1 1 0 0 1 0 1 1 1 1 1 1 2 2 2 2 2
6 8 10 6 5 4 4 4 4 4 4 4 4 5 6 3 2 3 2 2 2 2 2 1 1 1 1 1 0 0 1 1 1 1 1 1 1 1 1 1 2 2 2
6 6 5 5 5 5 5 4 4 4 4 5 5 5 7 4 3 3 3 3 2 2 2 1 1 1 1 1 1 1 1 1 1 1 1 1 1 1 1 1 1 2 2
6 6 6 5 5 7 6 4 4 4 4 4 5 4 4 3 3 3 3 3 3 3 2 1 1 1 1 1 1 1 2 2 2 2 2 2 2 2 2 2 2 2 2
5 5 5 5 5 5 5 4 4 4 4 4 4 4 4 3 3 3 3 3 3 3 3 2 1 1 1 1 1 1 1 1 1 2 2 2 2 2 2 2 2 2 2
5 5 5 5 5 5 5 4 4 4 5 5 4 4 4 4 3 3 3 3 3 3 3 3 2 1 2 2 1 1 1 1 1 1 1 2 2 2 2 2 2 2 2
5 5 5 4 4 4 4 4 4 5 4 4 4 4 4 3 3 3 3 2 2 3 3 3 3 3 3 2 1 1 1 1 1 1 1 1 2 2 3 2 3 2 3
Wind_Direction
335 331 327 324 322 320 316 311 308 306 297 285 264 257 248 243 246 238 227 216 210 216 226 214 220 212 205 201 194 194 207 197 222 243 235 237 212 224 252 233 236 240 244
332 331 327 324 325 323 318 316 311 307 301 289 275 260 256 246 238 237 232 221 213 215 215 206 218 211 202 197 191 199 210 207 198 219 227 227 230 220 225 232 250 250 243
331 330 329 327 326 320 316 316 312 307 302 295 287 265 258 251 245 236 228 223 222 215 207 207 215 205 208 202 195 198 208 209 197 198 218 225 231 215 220 260 255 249 252
332 331 329 324 320 315 313 316 311 305 300 293 286 279 268 261 250 241 235 228 221 218 214 213 213 209 209 202 200 199 197 201 193 193 201 212 221 201 184 215 260 250 256
330 329 325 321 318 317 317 318 314 309 304 294 286 289 278 263 250 243 231 228 222 218 216 219 221 218 217 211 207 198 194 201 198 198 207 206 207 190 205 199 228 247 266
326 322 322 323 322 320 317 317 315 308 304 302 295 291 287 274 271 269 254 229 222 215 216 219 224 221 223 227 225 218 210 207 207 205 212 214 219 205 194 195 200 207 252
321 320 320 323 322 319 316 317 315 308 307 306 298 291 286 282 279 274 274 255 222 220 217 212 221 224 219 210 218 225 231 232 228 218 211 216 212 203 191 203 210 215 223
321 320 319 321 319 318 317 314 312 307 303 299 297 290 288 290 289 285 280 260 233 231 229 216 209 217 218 207 202 213 227 236 239 227 216 215 212 200 199 206 205 200 220
324 320 317 316 314 315 315 314 311 308 304 299 297 295 292 291 288 287 290 250 243 247 245 231 216 216 227 217 198 202 225 246 257 243 230 222 219 212 195 171 173 179 226
320 315 313 314 311 310 309 311 313 309 302 303 300 295 289 288 285 288 289 244 240 250 253 246 246 240 229 219 199 194 214 232 219 230 228 219 213 204 205 198 187 186 190
315 315 316 314 309 304 304 308 310 308 307 304 301 299 293 290 291 292 292 259 235 242 251 253 255 260 250 234 223 209 219 216 201 203 205 189 177 183 197 197 190 184 187
316 316 315 313 308 308 307 308 310 308 308 305 304 304 299 296 299 296 293 291 285 244 245 248 248 257 259 248 236 225 216 192 179 189 199 194 188 190 179 163 154 140 160
317 315 314 312 308 308 307 306 309 306 304 307 304 302 303 304 298 299 294 296 295 272 244 253 260 256 264 240 237 237 199 179 183 202 208 208 191 168 142 120 105 102 80
315 313 312 312 311 310 305 303 303 301 301 302 304 299 300 303 298 287 277 282 284 278 254 238 302 302 279 293 284 276 243 202 192 204 204 182 142 140 143 141 144 135 109
313 311 311 310 307 305 306 300 298 289 295 300 299 297 297 300 303 305 298 283 265 258 293 83 30 197 208 220 255 242 227 196 196 178 162 154 156 151 146 131 135 132 150
314 314 311 310 309 307 307 311 311 309 313 312 314 309 302 305 313 314 312 305 291 268 221 196 232 227 230 227 225 244 238 215 201 177 165 168 175 172 158 140 142 150 160
309 308 307 310 311 310 309 310 314 318 319 320 321 317 317 320 319 316 311 314 329 46 67 224 263 259 248 234 228 223 228 231 197 175 172 177 177 172 163 163 163 155 163
309 306 307 305 305 305 307 307 306 308 315 318 319 319 322 323 324 326 326 335 336 1 4 305 292 286 271 266 250 237 221 193 176 172 172 178 179 175 172 174 175 174 171
313 309 304 301 304 306 308 308 307 305 304 310 316 320 325 324 325 338 350 354 324 322 332 330 319 297 279 267 262 242 216 191 174 173 178 178 176 168 173 173 171 174 168
313 315 318 313 311 313 315 315 314 313 312 314 315 319 325 331 341 345 349 345 329 311 311 310 309 303 290 272 237 199 190 171 155 162 176 176 172 177 182 176 175 176 181
316 318 323 319 313 312 312 311 311 314 316 317 317 320 331 335 334 329 326 329 323 312 306 300 296 296 294 283 239 194 182 191 198 189 179 183 177 177 188 178 175 176 171
316 317 320 319 319 318 316 316 320 318 319 320 321 325 333 341 341 335 332 329 327 321 310 295 286 286 278 255 232 211 201 203 204 196 193 189 184 178 174 178 176 177 171
317 318 319 320 320 320 324 324 323 323 322 321 322 326 331 335 336 334 332 333 332 327 329 323 305 310 327 319 269 221 206 212 213 201 194 191 185 187 188 185 181 179 184
319 318 319 320 321 320 320 321 323 322 321 321 321 323 327 329 330 330 334 336 331 330 333 330 321 315 315 316 306 287 245 215 201 198 195 188 188 186 186 184 185 191 189
322 323 323 322 321 320 320 320 321 322 322 321 320 321 326 327 327 326 331 334 334 336 338 334 328 328 319 310 300 282 253 249 251 217 189 181 182 188 189 187 185 177 177
331 327 323 322 321 321 320 320 322 324 322 320 320 321 322 321 321 324 325 329 329 329 331 333 335 329 319 313 296 279 281 277 263 259 205 167 169 182 183 179 173 173 173